Regional Weather Roundup
Issued by NWS Sterling, VA

Home | Current Version | Previous Version | Text Only | Print | Product List | Glossary On
Versions: 1 2 3 4 5 6 7 8 9 10 11 12 13 14 15 16 17 18 19 20 21 22 23 24 25 26 27 28 29 30 31 32 33 34 35 36 37 38 39 40 41 42 43 44 45 46 47 48 49 50
000
ASUS41 KLWX 302111
RWRLWX

REGIONAL WEATHER ROUNDUP
NATIONAL WEATHER SERVICE BALTIMORE MD/WASHINGTON DC
500 PM EDT SUN APR 30 2017

Note: "FAIR" indicates few or no clouds below 12,000 feet
with no significant weather and/or obstructions to visibility.
 TC=TEMPERATURE CELSIUS

 * =Non NWS site. Station does not report precipitation (e.g. rain,
    snow, etc.), thunder, or fog.

DCZ001-MDZ009-015-VAZ040>042-051-053>054-302200-
WASHINGTON METRO

CITY           SKY/WX    TMP DP  RH WIND       PRES   REMARKS
WASHINGTON NAT PTSUNNY   87  68  52 S14G28    30.01F HX  90
DULLES         PTSUNNY   86  66  51 S15G23    30.00F
ANDREWS AFB    MOSUNNY   85  66  52 S18       30.01F
FT BELVOIR     CLOUDY    86  64  48 S13       30.00F
QUANTICO       SUNNY     84  67  56 SW17      30.01F
COLLEGE PARK*  PTSUNNY   83  69  62 CALM      30.01
LEESBURG*      MOSUNNY   84  73  70 CALM      30.01F HX  91
MANASSAS*        N/A     86  66  51 SW15G21   30.01F

$$

MDZ006>007-011-014-302200-
BALTIMORE METRO

CITY           SKY/WX    TMP DP  RH WIND       PRES   REMARKS
BWI AIRPORT    CLOUDY    76  64  66 NE14      30.03F
MD SCIENCE CTR   N/A     78  60  53 MISG      30.04F
MARTIN STATE   MOSUNNY   75  63  64 NE6       30.06F
ANNAPOLIS      CLOUDY    78  69  73 SE9       30.01F
FORT MEADE*    CLOUDY    79  66  65 E7        30.05S

$$

MDZ012-015-019>023-302200-
MARYLAND EASTERN SHORE

CITY           SKY/WX    TMP DP  RH WIND       PRES   REMARKS
OCEAN CITY     SUNNY     72  65  78 S9        30.09F
SALISBURY      SUNNY     85  68  56 SW12      30.06F
BAY BRIDGE AP* SUNNY     82  68  61 SE13      30.02F
CAMBRIDGE*     SUNNY     82  68  61 S14G21    30.04F
EASTON*        MOSUNNY   84  68  58 S8        30.07F

$$

MDZ017>025-302200-
SOUTHERN MARYLAND

CITY           SKY/WX    TMP DP  RH WIND       PRES   REMARKS
PATUXENT RIVER PTSUNNY   88  65  46 SW12G20   30.04F HX  90
ST INIGOES     SUNNY     87  63  44 S15       30.03F
LEONARDTOWN*   SUNNY     86  59  39 SW9       30.05F

$$

MDZ003>005-302200-
NORTH CENTRAL MARYLAND

CITY           SKY/WX    TMP DP  RH WIND       PRES   REMARKS
FREDERICK*     PTSUNNY   84  73  70 SE7       30.05S HX  91
HAGERSTOWN APT MOSUNNY   82  68  62 SE12      30.00F
WESTMINSTER*   MOSUNNY   84  66  54 SE8       30.05R

$$

MDZ501>502-302200-
WESTERN MARYLAND

CITY           SKY/WX    TMP DP  RH WIND       PRES   REMARKS
OAKLAND*       CLOUDY    77  52  41 W5        30.06F
CUMBERLAND*    CLOUDY    84  64  51 S9G16     30.00F

$$

VAZ025>031-302200-
SHENANDOAH VALLEY

CITY           SKY/WX    TMP DP  RH WIND       PRES   REMARKS
WINCHESTER*    CLOUDY    79  66  65 SE10      29.99S
FRONT ROYAL*   CLOUDY    82  66  57 SE10G18   29.97S
LURAY*         MOSUNNY   82  63  51 S13G21    30.00S
NEW MARKET*    MOSUNNY   86  61  43 S15G21    29.98F
STAUNTON*      SUNNY     83  61  47 SW18G24   30.05F
WAYNESBORO*    SUNNY     82  63  52 S15G25    30.06F

$$

WVZ021-048>050-054>055-302200-
EASTERN WEST VIRGINIA PANHANDLE

CITY           SKY/WX    TMP DP  RH WIND       PRES   REMARKS
MARTINSBURG    CLOUDY    79  69  71 E5        29.99F
PETERSBURG*    SUNNY     88  64  44 S9        29.95F

$$

VAZ036>039-050-302200-
CENTRAL FOOTHILLS

CITY           SKY/WX    TMP DP  RH WIND       PRES   REMARKS
CHARLOTTESVILL SUNNY     86  63  45 SW12      30.03F
CULPEPER*      SUNNY     86  65  49 S14G23    30.02F
ORANGE*        SUNNY     84  63  48 SW16G30   30.03F
GORDONSVILLE*  MOSUNNY   85  65  50 S17       30.02F
WARRENTON*     SUNNY     87  60  39 SW12G21   30.01F

$$

VAZ055>057-302200-
NORTH AND CENTRAL PIEDMONT

CITY           SKY/WX    TMP DP  RH WIND       PRES   REMARKS
FREDERICKSBRG* SUNNY     87  65  47 S15G23    30.02F
STAFFORD*      SUNNY     85  63  47 S10G20    30.06F

$$

NCZ024-NYZ072-PAZ021-071-VAZ022-071-302200-
OTHER REGIONAL OBSERVATIONS

CITY           SKY/WX    TMP DP  RH WIND       PRES   REMARKS
NEW YORK CITY  CLOUDY    57  40  52 VRB5      30.23F
PHILADELPHIA   CLOUDY    71  50  47 E15       30.11S
PITTSBURGH     MOSUNNY   86  58  38 SW14G23   29.92F
ROANOKE        MOSUNNY   83  59  44 S14       30.06F
RICHMOND       MOSUNNY   86  63  45 SW13G21   30.07F
RALEIGH        CLOUDY    86  64  47 SW13      30.10F

$$

ANZ530>537-302200-
MARINE OBSERVATIONS

STATION/POSITION TIME  TEMP    WIND        PRES
                       AIR SEA DIR/SP/G
                 (UTC) (F)     (DEG/KT/KT) (MB)
THOMAS PT LIGHT  2100   77 63  140/  9/ 10   N/A
BALT KEY BRIDGE  2048   75     100/ 10/ 12 1017.1F
COVE POINT       2048   69     170/ 11/ 12 1017.8F
LEWISETTA        2048   84 75  220/ 16/ 20 1017.3F
SOLOMONS ISLAND  2048   82 65  220/ 12/ 16   N/A
PINEY POINT      2048          240/ 12/ 14   N/A

$$




USA.gov is the U.S. government's official web portal to all federal, state and local government web resources and services.